[[{"header":{"parameterUnit":"m.s-1","parameterCategory":1,"la1":30.2991,"la2":30.254,"lo1":-89.0895,"lo2":-89.0444,"dy":0.0017,"dx":0.0017,"nx":28,"ny":28,"refTime":"2025-12-30T03:00:00:Z","depth":0,"parameterNumber":2,"parameterNumberName":"U-component_of_WINDS"},"data":[0,0,0,0,0,0,0,0,0,0,0,0,0,0,0,0,0,0,0,0,0,0,0,0,0,0,0,0,0,0,0,0,0,0,0,0,0,0,0,0,0,0,0,0,0,0,0,0,0,0,0,0,0,0,0,0,0,0,1.5266,1.5265,0,1.5241,1.5241,1.524,1.5222,1.5222,1.5222,1.5222,1.5194,1.5193,1.5193,0,0,0,0,0,0,0,0,0,0,0,0,0,1.5295,1.5295,1.5266,1.5265,1.5265,1.5241,1.5241,1.524,1.5222,1.5222,1.5222,1.5222,1.5194,1.5193,1.5192,0,0,0,0,0,0,0,0,0,0,0,0,0,1.5278,1.5295,1.5266,1.5253,1.5252,1.5241,1.5241,1.524,1.5222,1.5222,1.5222,1.5222,1.5194,1.5193,1.5192,1.5191,0,0,1.519,1.5189,0,0,0,0,0,0,0,0,1.5279,1.5276,1.5255,1.5254,1.5253,1.5235,1.5241,1.5224,1.5222,1.5233,1.5222,1.5222,1.5207,1.5205,1.5201,1.519,1.5189,1.5189,1.5189,1.5189,1.5188,0,0,0,0,0,0,0,1.528,1.5277,1.5256,1.5255,1.5253,1.5248,1.5245,1.5237,1.5222,1.5233,1.5231,1.5229,1.5206,1.5202,1.52,1.5188,1.519,1.5189,1.5188,1.5188,1.5175,1.5175,0,0,0,0,0,0,1.5283,1.5279,1.5257,1.5255,1.5265,1.5248,1.5245,1.524,1.5222,1.5219,1.5229,1.5228,1.5204,1.5201,1.5199,1.5196,1.5189,1.5188,1.5187,1.5175,1.5175,1.5175,0,0,0,0,0,0,1.5284,1.5282,1.5258,1.5266,1.5263,1.5248,1.5243,1.524,1.5236,1.5219,1.5216,1.5227,1.5203,1.52,1.5194,1.5195,1.5187,1.5186,1.5174,1.5175,1.5175,1.5191,0,0,0,0,0,0,1.5285,1.5282,1.5282,1.5267,1.5263,1.5253,1.5243,1.524,1.5234,1.5233,1.5217,1.5214,1.5203,1.5195,1.5193,1.5194,1.5186,1.5174,1.5175,1.5175,1.519,1.5192,1.5193,0,0,0,0,0,1.5286,1.5286,1.5282,1.5279,1.5262,1.5253,1.5251,1.5239,1.5235,1.5234,1.5224,1.5214,1.5196,1.5194,1.5192,1.5193,1.5174,1.5174,1.5175,1.519,1.5192,1.5193,0,0,0,0,0,0,1.5301,1.5284,1.5279,1.5274,1.5266,1.525,1.5249,1.5241,1.5233,1.5231,1.5216,1.5213,1.5207,1.5199,1.5198,1.5191,1.5184,1.5184,1.5196,1.5198,1.5199,1.5201,1.5185,0,0,0,0,0,1.5304,1.5299,1.5284,1.5282,1.5278,1.5264,1.526,1.5252,1.5241,1.5237,1.5226,1.5216,1.5207,1.5202,1.5194,1.5189,1.5185,1.5189,1.519,1.5192,1.5191,1.5189,1.519,1.5177,1.5177,1.5177,0,0,1.5309,1.53,1.5297,1.5284,1.5276,1.5271,1.5261,1.5255,1.5251,1.5236,1.5229,1.5221,1.5208,1.5202,1.5199,1.5195,1.5194,1.5192,1.5193,1.5192,1.5189,1.519,1.5192,1.5177,1.5177,1.5177,0,0,1.5317,1.5309,1.5306,1.5299,1.5288,1.5279,1.5278,1.5264,1.5259,1.5252,1.5241,1.5235,1.5221,1.5212,1.5206,1.5212,1.5203,1.521,1.5217,1.5214,1.5215,1.5216,1.5218,1.5219,1.521,1.521,1.521,0,1.5324,1.5316,1.5305,1.5301,1.5295,1.5283,1.528,1.5273,1.5259,1.5256,1.5252,1.5235,1.5225,1.5218,1.5219,1.5215,1.5213,1.5211,1.5216,1.5217,1.5218,1.5219,1.522,1.521,1.521,1.521,1.521,0,1.5327,1.5321,1.532,1.5309,1.5303,1.5299,1.5287,1.5283,1.5276,1.5267,1.526,1.5249,1.5238,1.5236,1.5228,1.5227,1.5225,1.5219,1.5212,1.522,1.5221,1.5221,1.5212,1.5211,1.5211,1.5211,0,0,1.5341,1.5325,1.5324,1.5319,1.5306,1.5301,1.5297,1.5287,1.5284,1.5275,1.5271,1.526,1.5254,1.5248,1.5239,1.5237,1.5242,1.5231,1.523,1.5233,1.524,1.5244,1.5245,1.5236,1.5237,1.5237,1.5241,0,1.5346,1.5338,1.5329,1.5324,1.5319,1.5308,1.5304,1.5295,1.5287,1.5281,1.5272,1.5265,1.5258,1.5254,1.5252,1.5242,1.5243,1.5241,1.5231,1.5231,1.5234,1.5245,1.525,1.5254,1.5241,1.5241,1.5241,0,1.535,1.5343,1.5338,1.5326,1.5324,1.5321,1.5311,1.5306,1.5296,1.5291,1.5284,1.5275,1.5269,1.5264,1.5255,1.5255,1.525,1.5245,1.5244,1.5242,1.5236,1.5243,1.5255,1.5256,1.5242,1.5242,1.5242,0,1.5361,1.535,1.5346,1.5342,1.5328,1.5326,1.532,1.531,1.5305,1.5297,1.5293,1.5285,1.5279,1.5272,1.5261,1.5258,1.5254,1.5247,1.5249,1.5249,1.5247,1.5247,1.5258,1.5246,1.5246,1.5246,1.5246,0,1.5367,1.5364,1.535,1.5348,1.5344,1.5333,1.533,1.5323,1.5314,1.531,1.53,1.5295,1.5281,1.5275,1.5266,1.5261,1.5258,1.5253,1.5251,1.5254,1.5254,1.525,1.5249,1.5246,1.5246,1.5246,1.5246,0,1.5377,1.5368,1.5363,1.5351,1.5348,1.5346,1.5335,1.5332,1.5324,1.5318,1.5316,1.5304,1.5296,1.5285,1.5273,1.5268,1.5263,1.5259,1.5267,1.5265,1.5267,1.5266,1.5275,1.5275,1.5263,1.5263,1.5263,0,1.5381,1.5379,1.5368,1.5364,1.5359,1.5354,1.5349,1.5338,1.5334,1.5323,1.5321,1.5313,1.5306,1.5294,1.5283,1.5274,1.527,1.5274,1.5268,1.5272,1.5269,1.5269,1.5269,1.5274,1.5275,1.5275,1.5275,0,1.5389,1.5385,1.538,1.5372,1.5368,1.5361,1.5354,1.5352,1.534,1.5335,1.5328,1.5322,1.5311,1.5303,1.5293,1.5286,1.5278,1.5277,1.5277,1.5279,1.5283,1.528,1.5269,1.5276,1.5276,1.5276,1.5276,1.5276,1.5396,1.5394,1.5386,1.538,1.5374,1.5368,1.5364,1.5357,1.5351,1.5342,1.5336,1.5329,1.5319,1.5305,1.5299,1.5293,1.5289,1.5289,1.5289,1.5289,1.529,1.5285,1.5291,1.5291,1.5291,1.5291,1.5291,0,1.5404,1.5398,1.5393,1.5384,1.5379,1.5374,1.5366,1.5362,1.5356,1.5349,1.5342,1.5334,1.5326,1.5316,1.5307,1.5304,1.53,1.5302,1.5302,1.53,1.5293,1.5294,1.5305,1.5305,1.5305,1.5305,1.5305,1.5305,1.5407,1.5402,1.5398,1.539,1.5384,1.5378,1.5374,1.5368,1.5362,1.5354,1.5348,1.5342,1.5332,1.5323,1.5316,1.5313,1.531,1.5313,1.5309,1.5302,1.5301,1.5299,1.53,1.5312,1.5312,1.5316,1.5316,1.5316]},{"header":{"parameterUnit":"m.s-1","parameterCategory":1,"la1":30.2991,"la2":30.254,"lo1":-89.0895,"lo2":-89.0444,"dy":0.0017,"dx":0.0017,"nx":28,"ny":28,"refTime":"2025-12-30T03:00:00:Z","depth":0,"parameterNumber":3,"parameterNumberName":"V-component_of_WINDS"},"data":[0,0,0,0,0,0,0,0,0,0,0,0,0,0,0,0,0,0,0,0,0,0,0,0,0,0,0,0,0,0,0,0,0,0,0,0,0,0,0,0,0,0,0,0,0,0,0,0,0,0,0,0,0,0,0,0,0,0,-2.6718,-2.6719,0,-2.6867,-2.6868,-2.687,-2.6851,-2.6848,-2.6846,-2.6843,-2.6996,-2.7002,-2.7008,0,0,0,0,0,0,0,0,0,0,0,0,0,-2.6418,-2.6423,-2.6718,-2.672,-2.6721,-2.6866,-2.6868,-2.687,-2.6851,-2.6848,-2.6845,-2.6842,-2.6994,-2.7001,-2.7009,0,0,0,0,0,0,0,0,0,0,0,0,0,-2.6555,-2.6425,-2.6717,-2.6729,-2.6732,-2.6866,-2.6869,-2.6871,-2.6852,-2.6848,-2.6844,-2.6841,-2.6991,-2.7001,-2.701,-2.7142,0,0,-2.7039,-2.7043,0,0,0,0,0,0,0,0,-2.6548,-2.6567,-2.6726,-2.6729,-2.6732,-2.6836,-2.6819,-2.6962,-2.6853,-2.6806,-2.6843,-2.6839,-2.6946,-2.6959,-2.6995,-2.7149,-2.7156,-2.704,-2.7046,-2.705,-2.7052,0,0,0,0,0,0,0,-2.6538,-2.656,-2.6777,-2.6728,-2.6732,-2.6727,-2.6743,-2.6846,-2.6895,-2.681,-2.6809,-2.6827,-2.6947,-2.6986,-2.6998,-2.7158,-2.704,-2.7048,-2.7054,-2.7058,-2.743,-2.7434,0,0,0,0,0,0,-2.6525,-2.6552,-2.6772,-2.6781,-2.6629,-2.6736,-2.6753,-2.6806,-2.6894,-2.6903,-2.683,-2.6825,-2.6971,-2.6987,-2.7004,-2.7166,-2.705,-2.7059,-2.7064,-2.7426,-2.7431,-2.7435,0,0,0,0,0,0,-2.6519,-2.6545,-2.6766,-2.6667,-2.6694,-2.6745,-2.6805,-2.6811,-2.685,-2.6909,-2.6917,-2.6861,-2.6969,-2.699,-2.7108,-2.7171,-2.7063,-2.7072,-2.7421,-2.7427,-2.7433,-2.749,0,0,0,0,0,0,-2.6511,-2.6543,-2.6593,-2.6668,-2.67,-2.6868,-2.6809,-2.6817,-2.6867,-2.6862,-2.694,-2.6949,-2.6968,-2.7094,-2.7118,-2.7182,-2.7079,-2.7416,-2.7424,-2.7431,-2.7483,-2.7497,-2.751,0,0,0,0,0,-2.65,-2.6603,-2.6596,-2.6623,-2.6764,-2.6872,-2.689,-2.6909,-2.6872,-2.6923,-2.6961,-2.6947,-2.7159,-2.7106,-2.7133,-2.7201,-2.7412,-2.7421,-2.7431,-2.7476,-2.7494,-2.7509,0,0,0,0,0,0,-2.6534,-2.6613,-2.6606,-2.6736,-2.6798,-2.6868,-2.6934,-2.6927,-2.7,-2.6993,-2.7014,-2.7032,-2.7152,-2.7188,-2.7127,-2.7334,-2.7281,-2.7296,-2.7306,-2.7324,-2.7337,-2.7327,-2.7087,0,0,0,0,0,-2.6557,-2.6638,-2.6702,-2.6811,-2.6842,-2.6883,-2.693,-2.694,-2.7004,-2.703,-2.7076,-2.7139,-2.7221,-2.7274,-2.7352,-2.7487,-2.7505,-2.7547,-2.756,-2.7571,-2.7585,-2.7661,-2.7681,-2.7466,-2.7466,-2.7466,0,0,-2.6605,-2.6658,-2.6708,-2.6819,-2.6868,-2.6952,-2.6905,-2.6995,-2.7058,-2.7044,-2.7159,-2.7195,-2.7267,-2.7395,-2.7453,-2.7428,-2.7647,-2.7583,-2.7591,-2.7599,-2.7673,-2.7693,-2.7711,-2.7473,-2.7472,-2.7471,0,0,-2.6736,-2.6783,-2.688,-2.693,-2.7004,-2.7031,-2.7054,-2.7126,-2.715,-2.7265,-2.7257,-2.7332,-2.7471,-2.7523,-2.7568,-2.772,-2.771,-2.7744,-2.7816,-2.789,-2.7907,-2.7922,-2.7978,-2.7998,-2.7757,-2.7757,-2.7757,0,-2.6786,-2.6912,-2.693,-2.7023,-2.7073,-2.7064,-2.7163,-2.721,-2.7306,-2.7341,-2.7312,-2.7487,-2.7535,-2.7676,-2.7713,-2.7749,-2.7777,-2.7736,-2.7903,-2.7918,-2.7933,-2.7987,-2.8008,-2.7761,-2.7761,-2.776,-2.776,0,-2.6972,-2.7059,-2.7129,-2.7223,-2.728,-2.7375,-2.7408,-2.7464,-2.7469,-2.7499,-2.7617,-2.7674,-2.7764,-2.7798,-2.7803,-2.7941,-2.7923,-2.7898,-2.7845,-2.7957,-2.8008,-2.8029,-2.7767,-2.7765,-2.7764,-2.7763,0,0,-2.7129,-2.7232,-2.7258,-2.7301,-2.7383,-2.7451,-2.7546,-2.7634,-2.7683,-2.7749,-2.7831,-2.7949,-2.7927,-2.7978,-2.7989,-2.8054,-2.8173,-2.8021,-2.8023,-2.8049,-2.833,-2.835,-2.8374,-2.8166,-2.817,-2.8173,-2.8325,0,-2.727,-2.7438,-2.7458,-2.7608,-2.769,-2.7683,-2.7766,-2.7826,-2.7856,-2.7931,-2.7964,-2.8049,-2.8012,-2.8043,-2.8106,-2.8145,-2.823,-2.8134,-2.8243,-2.8247,-2.8228,-2.84,-2.8421,-2.8562,-2.8345,-2.8348,-2.8351,0,-2.7456,-2.7529,-2.7688,-2.776,-2.7795,-2.7869,-2.7953,-2.8024,-2.8091,-2.8109,-2.8166,-2.8169,-2.8268,-2.821,-2.8348,-2.8282,-2.8328,-2.8354,-2.836,-2.8372,-2.8307,-2.842,-2.8607,-2.8629,-2.8382,-2.8379,-2.8377,0,-2.7558,-2.7695,-2.7809,-2.7846,-2.7932,-2.7985,-2.8023,-2.8087,-2.8139,-2.8212,-2.8247,-2.833,-2.8376,-2.8441,-2.8466,-2.8421,-2.8604,-2.8547,-2.8622,-2.8622,-2.8663,-2.866,-2.8862,-2.8688,-2.8688,-2.8688,-2.8687,0,-2.7714,-2.7812,-2.7856,-2.7926,-2.8036,-2.8057,-2.8166,-2.8202,-2.8259,-2.8336,-2.8334,-2.8407,-2.8436,-2.8513,-2.8534,-2.8646,-2.8666,-2.8684,-2.8689,-2.8686,-2.8684,-2.8718,-2.8709,-2.8693,-2.8692,-2.8691,-2.869,0,-2.7848,-2.7881,-2.8004,-2.8076,-2.8096,-2.8174,-2.8236,-2.8304,-2.8333,-2.8431,-2.8456,-2.8502,-2.8593,-2.8625,-2.8735,-2.8749,-2.888,-2.8875,-2.8858,-2.886,-2.8934,-2.8928,-2.9167,-2.92,-2.9002,-2.9004,-2.9005,0,-2.7946,-2.8022,-2.8102,-2.8154,-2.8194,-2.8277,-2.8331,-2.8355,-2.8411,-2.8495,-2.8553,-2.8644,-2.8718,-2.8865,-2.8909,-2.8993,-2.8992,-2.907,-2.9005,-2.9,-2.8996,-2.8993,-2.9001,-2.9083,-2.9085,-2.9087,-2.9088,0,-2.8119,-2.8132,-2.8209,-2.8294,-2.8358,-2.8425,-2.849,-2.8533,-2.8566,-2.863,-2.8724,-2.8781,-2.8894,-2.8985,-2.9072,-2.9112,-2.9107,-2.9108,-2.913,-2.9129,-2.9117,-2.9127,-2.8894,-2.9103,-2.9101,-2.91,-2.9099,-2.9099,-2.824,-2.8307,-2.8375,-2.8462,-2.8513,-2.8574,-2.8643,-2.8681,-2.8759,-2.8854,-2.8863,-2.8964,-2.9031,-2.9148,-2.9192,-2.9272,-2.925,-2.9282,-2.9291,-2.9299,-2.9306,-2.9102,-2.9287,-2.9287,-2.9287,-2.9286,-2.9286,0,-2.8414,-2.8457,-2.8537,-2.8629,-2.8698,-2.8686,-2.8757,-2.8816,-2.8906,-2.8968,-2.9041,-2.915,-2.9238,-2.9289,-2.9378,-2.9432,-2.9432,-2.9455,-2.9453,-2.9462,-2.9319,-2.9292,-2.9454,-2.9454,-2.9454,-2.9454,-2.9454,-2.9454,-2.8513,-2.8628,-2.8649,-2.8789,-2.8831,-2.8931,-2.8973,-2.903,-2.9081,-2.9202,-2.9276,-2.9308,-2.9367,-2.946,-2.9541,-2.9554,-2.9587,-2.9613,-2.9624,-2.9489,-2.9472,-2.9456,-2.9431,-2.9619,-2.962,-2.9761,-2.9762,-2.9763]}]]